This demonstration page uses our WeatherBlox Daily Observations layout. Learn more.

Left ArrowRight Arrow

Hourly Observations for March 20, 2021

Temp ( °F °C ) Dew Point ( °F °C ) Humidity (%) Winds ( mph kmh ) Pressure ( in mb ) Visibility ( mi km ) Precip ( " mm )
1:53 am 01:53 Mostly Cloudy 41 5 23 -5 49 49 WNW 10 17 29.90 1012 10 16 N/A
2:53 am 02:53 Clear 36 2.2 23 -5 59 59 WSW 8 13 29.91 1013 10 16 N/A
3:53 am 03:53 Clear 32 undefined 23 -5 69 69 SSE 5 7 29.91 1013 10 16 N/A
4:53 am 04:53 Clear 33 0.6 23 -5 66 66 SW 8 13 29.90 1012 10 16 N/A
5:53 am 05:53 Clear 32 undefined 23 -5 69 69 SSW 7 11 29.91 1013 10 16 N/A
6:53 am 06:53 Clear 34 1.1 23 -5 64 64 SW 5 7 29.92 1013 10 16 N/A
7:53 am 07:53 Sunny 35 1.7 23 -5 61 61 WSW 10 17 29.91 1013 10 16 N/A
8:53 am 08:53 Sunny 37 2.8 24 -4.4 59 59 SW 9 15 29.92 1013 10 16 N/A
9:53 am 09:53 Sunny 39 3.9 24 -4.4 55 55 WSW 15 24 29.92 1013 10 16 N/A
10:53 am 10:53 Sunny 42 5.6 25 -3.9 51 51 WSW 12 19 29.91 1013 10 16 N/A
11:53 am 11:53 Sunny 46 7.8 26 -3.3 46 46 SW 16 26 29.89 1012 10 16 N/A
12:53 pm 12:53 Sunny 50 10 23 -5 35 35 WSW 14 22 29.87 1011 10 16 N/A
1:53 pm 13:53 Sunny 53 11.7 19 -7.2 26 26 WSW 14 22 29.85 1011 10 16 N/A
2:53 pm 14:53 Sunny 53 11.7 18 -7.8 25 25 WSW 16 26 29.83 1010 10 16 N/A
3:53 pm 15:53 Sunny 53 11.7 16 -8.9 23 23 SW 15 24 29.83 1010 10 16 N/A
4:53 pm 16:53 Sunny 53 11.7 18 -7.8 25 25 SW 17 28 29.82 1010 10 16 N/A
5:53 pm 17:53 Sunny 53 11.7 18 -7.8 25 25 SSW 15 24 29.80 1009 10 16 N/A
6:53 pm 18:53 Cloudy 50 10 19 -7.2 29 29 SSW 13 20 29.81 1010 10 16 N/A
7:53 pm 19:53 Partly Cloudy 47 8.3 16 -8.9 29 29 W 20 31 29.83 1010 10 16 N/A
8:53 pm 20:53 Clear 42 5.6 18 -7.8 38 38 W 13 20 29.86 1011 10 16 N/A
9:53 pm 21:53 Clear 34 1.1 19 -7.2 54 54 WSW 7 11 29.90 1012 10 16 N/A
10:53 pm 22:53 Clear 39 3.9 21 -6.1 48 48 W 13 20 29.89 1012 10 16 N/A
11:53 pm 23:53 Clear 34 1.1 21 -6.1 59 59 SW 6 9 29.91 1013 10 16 N/A

Powered by AerisWeather